Location: Columbus AFB Auxilary Field
(32.9346°N, 88.5717°W)
Time: 04:27:53
(UTC-06:00)

ISS - Visible Passes

Search period start: 10 December 2018 00:00
Search period end: 20 December 2018 00:00
Orbit: 401 x 408 km, 51.6° (Epoch: 10 December)

Date Brightness Start Highest point End Pass type
(mag) Time Alt. Az. Time Alt. Az. Time Alt. Az.
10 Dec -2.0 18:18:25 10° NNW 18:19:50 20° N 18:19:50 20° N visible
11 Dec -2.1 17:26:45 10° N 17:28:58 17° NNE 17:30:35 13° ENE visible
11 Dec -1.0 19:02:30 10° WNW 19:03:19 16° WNW 19:03:19 16° WNW visible
12 Dec -4.0 18:10:08 10° NW 18:13:24 85° NE 18:14:30 38° SE visible
13 Dec -3.3 17:18:03 10° NNW 17:21:07 38° NE 17:24:10 10° ESE visible
13 Dec -0.7 18:55:33 10° W 18:57:19 14° SW 18:59:05 10° SSW visible
14 Dec -1.8 18:02:20 10° WNW 18:05:14 29° SW 18:08:06 10° SSE visible
16 Dec 0.0 17:56:11 10° WSW 17:56:52 10° SW 17:57:34 10° SW visible
